When you browse on this site, cookies collect data to enhance your experience and personalize the content and advertising you see.
Visit our Privacy Policy to learn more. By continuing to use the site, you agree to this use of cookies and data.
  • en France
  • Liste des pays
  • À 7 jours
  • Température de l'eau
  • Carte satellitaire
  • Carte météo
  • Widgets météo
  • user-avatar
    Se connecter

    Météo par heure à Bijeljina

    Ce jour, 25 Mai, Samedi

    Heure Température Précipitation Vent Pression Humidité
    00:00 +13°C° 0 mm 2 m/s 752 mmHg 88%
    01:00 +13°C° 0 mm 2 m/s 751 mmHg 87%
    02:00 +12°C° 0 mm 2 m/s 751 mmHg 87%
    03:00 +12°C° 0 mm 2 m/s 752 mmHg 87%
    04:00 +12°C° 0 mm 2 m/s 752 mmHg 87%
    05:00 +13°C° 0 mm 2 m/s 752 mmHg 84%
    06:00 +15°C° 0 mm 2 m/s 752 mmHg 80%
    07:00 +17°C° 0 mm 3 m/s 752 mmHg 74%
    08:00 +19°C° 0 mm 3 m/s 752 mmHg 69%
    09:00 +20°C° 0 mm 3 m/s 752 mmHg 64%
    10:00 +22°C° 0 mm 3 m/s 752 mmHg 59%
    11:00 +22°C° 0 mm 3 m/s 752 mmHg 57%
    12:00 +24°C° 0 mm 3 m/s 752 mmHg 55%
    13:00 +25°C° 0 mm 3 m/s 752 mmHg 53%
    14:00 +25°C° 0 mm 3 m/s 752 mmHg 54%
    15:00 +25°C° 0 mm 2 m/s 752 mmHg 54%
    16:00 +25°C° 0 mm 2 m/s 752 mmHg 55%
    17:00 +23°C° 0 mm 1 m/s 752 mmHg 60%
    18:00 +21°C° 0 mm 1 m/s 752 mmHg 66%
    19:00 +17°C° 0 mm 0 m/s 752 mmHg 71%
    20:00 +19°C° 0 mm 1 m/s 752 mmHg 73%
    21:00 +18°C° 0 mm 1 m/s 753 mmHg 76%
    22:00 +16°C° 0 mm 1 m/s 753 mmHg 78%
    23:00 +15°C° 0 mm 1 m/s 753 mmHg 80%

    Demain, 26 Mai, Dimanche

    Heure Température Précipitation Vent Pression Humidité
    00:00 +15°C° 0 mm 1 m/s 753 mmHg 81%
    01:00 +15°C° 0 mm 1 m/s 753 mmHg 83%
    02:00 +14°C° 0 mm 1 m/s 753 mmHg 84%
    03:00 +14°C° 0 mm 1 m/s 753 mmHg 84%
    04:00 +14°C° 0 mm 1 m/s 753 mmHg 85%
    05:00 +15°C° 0 mm 1 m/s 753 mmHg 81%
    06:00 +18°C° 0 mm 1 m/s 753 mmHg 77%
    07:00 +20°C° 0 mm 1 m/s 753 mmHg 72%
    08:00 +21°C° 0 mm 1 m/s 753 mmHg 68%
    09:00 +23°C° 0 mm 1 m/s 753 mmHg 64%
    10:00 +25°C° 0 mm 2 m/s 753 mmHg 60%
    11:00 +25°C° 0 mm 2 m/s 753 mmHg 58%
    12:00 +26°C° 0 mm 2 m/s 752 mmHg 57%
    13:00 +27°C° 0 mm 2 m/s 752 mmHg 55%
    14:00 +27°C° 0.1 mm 2 m/s 752 mmHg 57%
    15:00 +26°C° 0.1 mm 2 m/s 752 mmHg 58%
    16:00 +26°C° 0.1 mm 2 m/s 751 mmHg 59%
    17:00 +25°C° 0.1 mm 1 m/s 751 mmHg 65%
    18:00 +23°C° 0.1 mm 1 m/s 751 mmHg 70%
    19:00 +22°C° 0.1 mm 1 m/s 751 mmHg 76%
    20:00 +21°C° 0 mm 1 m/s 752 mmHg 78%
    21:00 +20°C° 0 mm 1 m/s 752 mmHg 80%
    22:00 +20°C° 0 mm 1 m/s 752 mmHg 82%
    23:00 +19°C° 0 mm 1 m/s 752 mmHg 83%

    Après-demain, 27 Mai, Lundi

    Heure Température Précipitation Vent Pression Humidité
    00:00 +17°C° 0 mm 0 m/s 752 mmHg 84%
    01:00 +17°C° 0 mm 0 m/s 752 mmHg 85%
    02:00 +16°C° 0 mm 0 m/s 752 mmHg 86%
    03:00 +18°C° 0 mm 1 m/s 751 mmHg 87%
    04:00 +16°C° 0 mm 1 m/s 751 mmHg 88%
    05:00 +19°C° 0 mm 1 m/s 751 mmHg 84%
    06:00 +20°C° 0 mm 1 m/s 751 mmHg 80%
    07:00 +22°C° 0 mm 1 m/s 751 mmHg 76%
    08:00 +23°C° 0 mm 1 m/s 751 mmHg 73%
    09:00 +24°C° 0 mm 1 m/s 751 mmHg 70%
    10:00 +26°C° 0 mm 2 m/s 751 mmHg 67%
    11:00 +25°C° 0.4 mm 2 m/s 751 mmHg 70%
    12:00 +25°C° 0.4 mm 2 m/s 751 mmHg 73%
    13:00 +25°C° 0.4 mm 2 m/s 751 mmHg 77%
    14:00 +25°C° 0.2 mm 2 m/s 750 mmHg 79%
    15:00 +24°C° 0.2 mm 3 m/s 750 mmHg 82%
    16:00 +24°C° 0.2 mm 3 m/s 750 mmHg 85%
    17:00 +22°C° 0 mm 3 m/s 750 mmHg 87%
    18:00 +21°C° 0 mm 2 m/s 749 mmHg 89%
    19:00 +20°C° 0 mm 2 m/s 749 mmHg 92%
    20:00 +20°C° 0 mm 2 m/s 749 mmHg 92%
    21:00 +19°C° 0 mm 2 m/s 749 mmHg 92%
    22:00 +18°C° 0 mm 2 m/s 749 mmHg 93%
    23:00 +19°C° 0 mm 1 m/s 749 mmHg 93%

    28 Mai, Mardi

    Heure Température Précipitation Vent Pression Humidité
    00:00 +19°C° 0 mm 1 m/s 748 mmHg 93%
    01:00 +18°C° 0 mm 1 m/s 748 mmHg 93%
    02:00 +18°C° 0.2 mm 1 m/s 747 mmHg 93%
    03:00 +18°C° 0.2 mm 1 m/s 747 mmHg 94%
    04:00 +18°C° 0.2 mm 1 m/s 747 mmHg 94%
    05:00 +19°C° 0.2 mm 1 m/s 746 mmHg 91%
    06:00 +20°C° 0.2 mm 1 m/s 746 mmHg 87%
    07:00 +21°C° 0.2 mm 1 m/s 746 mmHg 83%
    08:00 +23°C° 0.1 mm 2 m/s 746 mmHg 74%
    09:00 +25°C° 0.1 mm 2 m/s 746 mmHg 66%
    10:00 +27°C° 0.1 mm 2 m/s 746 mmHg 58%
    11:00 +28°C° 0 mm 3 m/s 746 mmHg 55%
    12:00 +28°C° 0 mm 4 m/s 745 mmHg 52%
    13:00 +29°C° 0 mm 5 m/s 745 mmHg 49%
    14:00 +27°C° 0 mm 4 m/s 745 mmHg 54%
    15:00 +26°C° 0 mm 4 m/s 745 mmHg 59%
    16:00 +25°C° 0 mm 3 m/s 745 mmHg 64%
    17:00 +24°C° 0 mm 3 m/s 745 mmHg 67%
    18:00 +22°C° 0 mm 3 m/s 745 mmHg 70%
    19:00 +20°C° 0 mm 3 m/s 745 mmHg 72%
    20:00 +19°C° 0 mm 2 m/s 745 mmHg 72%
    21:00 +18°C° 0 mm 2 m/s 746 mmHg 72%
    22:00 +17°C° 0 mm 2 m/s 746 mmHg 72%
    23:00 +17°C° 0 mm 2 m/s 746 mmHg 71%

    29 Mai, Mercredi

    Heure Température Précipitation Vent Pression Humidité
    00:00 +17°C° 0 mm 2 m/s 746 mmHg 71%
    01:00 +17°C° 0 mm 2 m/s 747 mmHg 70%
    02:00 +17°C° 0 mm 2 m/s 747 mmHg 71%
    03:00 +17°C° 0 mm 2 m/s 746 mmHg 73%
    04:00 +17°C° 0 mm 2 m/s 746 mmHg 74%
    05:00 +19°C° 0 mm 1 m/s 747 mmHg 73%
    06:00 +20°C° 0 mm 1 m/s 747 mmHg 72%
    07:00 +21°C° 0 mm 1 m/s 747 mmHg 71%
    08:00 +22°C° 0.2 mm 1 m/s 748 mmHg 69%
    09:00 +24°C° 0.2 mm 2 m/s 748 mmHg 66%
    10:00 +25°C° 0.2 mm 3 m/s 748 mmHg 64%
    11:00 +26°C° 0.6 mm 4 m/s 748 mmHg 62%
    12:00 +26°C° 0.6 mm 5 m/s 748 mmHg 59%
    13:00 +26°C° 0.6 mm 6 m/s 748 mmHg 57%
    14:00 +23°C° 0.1 mm 6 m/s 749 mmHg 65%
    15:00 +21°C° 0.1 mm 5 m/s 749 mmHg 73%
    16:00 +19°C° 0.1 mm 5 m/s 749 mmHg 81%
    17:00 +17°C° 0 mm 5 m/s 750 mmHg 83%
    18:00 +17°C° 0 mm 4 m/s 751 mmHg 85%
    19:00 +15°C° 0 mm 4 m/s 751 mmHg 86%
    20:00 +14°C° 0 mm 3 m/s 752 mmHg 88%
    21:00 +13°C° 0 mm 3 m/s 753 mmHg 90%
    22:00 +12°C° 0 mm 3 m/s 753 mmHg 91%
    23:00 +11°C° 0 mm 3 m/s 754 mmHg 93%

    30 Mai, Jeudi

    Heure Température Précipitation Vent Pression Humidité
    00:00 +12°C° 0 mm 2 m/s 754 mmHg 94%
    01:00 +10°C° 0 mm 2 m/s 754 mmHg 96%
    02:00 +10°C° 0 mm 2 m/s 754 mmHg 95%
    03:00 +10°C° 0 mm 2 m/s 755 mmHg 93%
    04:00 +10°C° 0 mm 2 m/s 755 mmHg 92%
    05:00 +12°C° 0 mm 2 m/s 755 mmHg 90%
    06:00 +12°C° 0 mm 3 m/s 755 mmHg 88%
    07:00 +13°C° 0 mm 3 m/s 756 mmHg 85%
    08:00 +14°C° 0 mm 3 m/s 756 mmHg 81%
    09:00 +15°C° 0 mm 4 m/s 756 mmHg 77%
    10:00 +17°C° 0 mm 4 m/s 756 mmHg 73%
    11:00 +17°C° 0 mm 4 m/s 756 mmHg 72%
    12:00 +16°C° 0 mm 5 m/s 756 mmHg 71%
    13:00 +17°C° 0 mm 5 m/s 756 mmHg 71%
    14:00 +16°C° 0 mm 5 m/s 756 mmHg 71%
    15:00 +16°C° 0 mm 5 m/s 756 mmHg 71%
    16:00 +16°C° 0 mm 5 m/s 756 mmHg 71%
    17:00 +15°C° 0 mm 5 m/s 756 mmHg 77%
    18:00 +13°C° 0 mm 4 m/s 756 mmHg 82%
    19:00 +12°C° 0 mm 3 m/s 756 mmHg 87%
    20:00 +11°C° 0 mm 3 m/s 756 mmHg 89%
    21:00 +11°C° 0 mm 3 m/s 757 mmHg 90%
    22:00 +11°C° 0 mm 3 m/s 757 mmHg 91%
    23:00 +11°C° 0 mm 3 m/s 757 mmHg 90%
    Voir plus